Regional Weather Roundup
Issued by NWS

Home | Current Version | Previous Version | Text Only | Print | Product List | Glossary Off
Versions: 1 2 3 4 5 6 7 8 9 10 11 12 13 14 15 16 17 18 19 20 21 22 23 24 25 26 27 28 29 30 31 32 33 34 35 36 37 38 39 40 41 42 43 44 45 46 47 48 49 50

000
ASUS43 KLSX 030659
RWRMO

WEATHER SUMMARY FOR MISSOURI
NATIONAL WEATHER SERVICE SPRINGFIELD MO
200 AM CDT FRI JUL 03 2015

NOTE: "FAIR" INDICATES FEW OR NO CLOUDS BELOW 12,000 FEET WITH NO
       SIGNIFICANT WEATHER AND/OR OBSTRUCTIONS TO VISIBILITY.
       CURRENT SKY AND/OR WEATHER CONDITIONS ARE NOT AVAILABLE FOR
       CHILLICOTHE AND FARMINGTON.

MOZ001>031-035>038-043-044-053-054-030800-
...NORTHERN AND WESTERN MISSOURI...

CITY           SKY/WX    TMP DP  RH WIND       PRES   REMARKS
KANSAS CTY INT CLOUDY    67  64  90 E7        29.94F
KANSAS C DTWN  CLOUDY    70  64  81 E8        29.93F
LEE`S SUMMIT   CLOUDY    68  62  81 E7        29.94F
ST JOSEPH      CLOUDY    66  61  84 NE5       29.95S
CHILLICOTHE      N/A     65  61  87 CALM      29.97S
KIRKSVILLE     CLOUDY    64  60  87 N3        29.97F

$$
MOZ066>068-077>081-088>096-101>105-030800-
...SOUTHWEST MISSOURI...

CITY           SKY/WX    TMP DP  RH WIND       PRES   REMARKS
SPRINGFIELD    MOCLDY    73  69  87 CALM      29.91F
JOPLIN         PTCLDY    72  70  93 CALM      29.91F

$$
MOZ032>034-039>042-045>050-055>058-069>072-030800-
...CENTRAL MISSOURI...

CITY           SKY/WX    TMP DP  RH WIND       PRES   REMARKS
COLUMBIA       CLOUDY    67  62  84 NE5       29.94F
JEFFERSON CITY CLOUDY    68  62  81 NE5       29.92F
ROLLA          CLOUDY    67  64  90 NE9       29.92S
SEDALIA        CLOUDY    68  62  81 NE5       29.94F
OSAGE BEACH    CLOUDY    70  66  88 N5        29.92F

$$
MOZ051-052-059>065-030800-
...EAST CENTRAL MISSOURI...

CITY           SKY/WX    TMP DP  RH WIND       PRES   REMARKS
ST LOUIS INTL  MOCLDY    69  62  78 NW6       29.91F
SPIRIT OF STL  CLOUDY    68  63  84 N5        29.90F
ST CHARLES     CLOUDY    68  62  81 VRB5      29.90F

$$
MOZ072>076-082>087-097>100-106>115-030800-
...SOUTH CENTRAL AND SOUTHEAST MISSOURI...

CITY           SKY/WX    TMP DP  RH WIND       PRES   REMARKS
CAPE GIRARDEAU CLOUDY    73  69  87 N6        29.85F
FARMINGTON     CLOUDY    66  64  94 NE5       29.94S
POPLAR BLUFF   LGT RAIN  72  69  90 NW3       29.86S
WEST PLAINS    CLOUDY    70  68  93 CALM      29.91F

$$


USA.gov is the U.S. government's official web portal to all federal, state and local government web resources and services.